Макарово

Россия / Иркутская область     57°29′00″N   107°49′25″E
темп.,
°C
ветер,
м/с
пор.,
м/с
влажн.,
%
обл.,
%
осадки,
мм/ч
давл.,
гПа
погр.,
м
10 мая, пн
пн1023:00+2с22885 0.1 101211
02:00+1с22934 0.1 101228
05:00−1с23955 0.0 101361
08:00+6ссв377132 0.0 1013419
11:00+11св574950 0.0 10131447
14:00+14св4642100 0.0 10122329
17:00+14св474090 0.0 10122084
20:00+9ссв3870100 0.4 1015242
11 мая, вт
вт1123:00+6с3108551 0.3 1016377
02:00+4с3109054 0.3 1017395
05:00+2с31091100 0.0 1019446
08:00+4с476798 0.0 1019801
11:00+7с4549100 0.0 10191634
14:00+7с4449100 0.1 10191792
17:00+7ссв3446100 0.1 10181662
20:00+5с365676 0.2 1019447
12 мая, ср
ср1223:000ссз23795 0.0 102048
02:00−1сз119062 0.0 102024
05:00−1сз118886 0.0 101942
08:00+2с356376 0.0 1019891
11:00+5с4550100 0.8 10171730
14:00+7ссв4536100 1.1 10162294
17:00+7с454198 0.4 10161937
20:00+4с375819 0.7 1017427
13 мая, чт
чт1323:00−1ссз22825 0.0 101823
02:00−2ссз22875 0.0 101919
05:00−2ссз11875 0.0 102020
08:00+4с35525 0.0 1020666
11:00+8ссв3434100 0.0 10182110
14:00+11с342888 0.0 10172433
17:00+11ссз342778 0.0 10162544
20:00+7ссз11416 0.0 101610
14 мая, пт
пт1423:00+3зюз11535 0.0 101710
02:00+1юз11615 0.0 101711
05:000ююз226587 0.0 101724
08:00+7ююз2444100 0.0 1016377
11:00+12юз352998 0.0 10132151
14:00+14юз462353 0.0 10102598
17:00+15юз47225 0.0 10072667
20:00+11ююв223696 0.0 100641